Location: Demmingen
(48.6757°N, 10.4375°E)
Time: 05:01:51
(UTC+00:00)

SL-16 R/B - Pass Details

Date: 11 August 2024
Orbit: 842 x 845 km, 71.0° (Epoch: 16 September)

Event Time Altitude Azimuth Distance (km) Brightness Sun altitude
Exits shadow 00:42:50 26° 269° (W) 1,619 3.4 -23.8°
Maximum altitude 00:45:04 35° 310° (NW) 1,346 3.4 -23.6°
Drops below altitude 10° 00:50:15 10° 16° (NNE) 2,476 5.7 -23.3°
Sets 00:52:56 0° 25° (NNE) 3,415 6.8 -23.1°
